Wind_Speed
34 33 36 34 34 33 36 31 35 34 36 35 38 38 37 36 32 30 27 25 25 21 19 18 17 16 17
32 31 33 39 43 42 48 46 35 50 32 39 38 38 38 39 35 32 30 28 29 23 22 19 17 17 16
32 32 33 33 35 44 47 43 46 46 42 35 38 41 38 38 36 36 34 32 32 26 24 20 18 17 16
36 35 34 32 35 38 41 47 44 40 46 41 45 44 43 38 35 37 36 35 34 29 27 22 20 17 17
39 38 37 34 35 35 41 39 41 43 44 43 45 43 43 43 41 36 37 39 35 32 29 25 22 18 17
38 39 38 37 36 35 36 39 39 47 51 43 40 37 42 45 45 40 39 39 38 35 32 28 24 20 17
39 40 39 40 39 36 35 40 41 42 53 49 46 42 38 49 42 44 41 38 41 39 33 30 25 22 18
42 41 41 40 40 35 36 38 43 41 45 55 47 45 47 48 55 50 47 39 43 41 35 33 27 23 23
46 45 44 44 42 39 36 38 40 41 41 51 51 51 51 52 41 48 45 43 44 42 37 36 29 26 25
49 48 48 47 46 41 37 38 40 43 41 47 50 53 52 54 52 37 44 46 45 44 41 38 33 33 21
52 54 51 47 48 45 41 38 38 42 41 46 46 50 50 47 46 46 43 46 47 45 45 40 43 31 25
52 56 55 52 48 46 44 41 38 40 41 44 48 44 54 46 42 42 48 53 48 47 45 43 50 34 28
52 53 54 52 51 48 43 42 39 37 41 45 46 45 46 53 42 40 46 46 49 46 46 44 52 36 28
52 51 51 50 49 49 45 41 41 37 40 44 44 44 46 48 43 43 42 46 55 49 53 58 49 42 30
51 49 48 49 48 48 46 45 42 39 39 42 41 43 45 43 47 44 43 45 45 52 57 52 52 37 30
53 51 48 49 50 49 49 46 43 41 41 42 39 41 45 46 49 45 43 46 45 42 49 54 48 38 33
54 53 51 52 52 53 51 47 43 42 42 41 41 38 44 47 45 44 40 44 44 41 47 49 45 38 36
Wind_Direction
291 283 269 271 264 263 267 250 246 252 249 253 254 252 251 252 249 253 257 261 267 271 276 285 301 316 321
288 286 281 272 270 267 269 275 267 235 250 252 251 254 252 252 250 249 252 256 262 264 270 276 289 307 313
292 288 285 281 283 280 268 274 271 257 257 246 248 249 251 253 250 247 248 251 255 259 263 268 278 297 304
295 291 287 285 282 281 277 267 269 268 264 249 245 246 251 252 250 243 245 248 251 254 258 261 268 286 295
291 294 292 288 282 282 280 273 263 258 250 256 243 245 241 250 252 245 242 244 248 252 253 256 261 274 285
286 286 290 291 288 282 280 277 263 254 250 243 248 253 242 249 246 251 247 241 243 247 248 251 255 264 275
287 285 284 287 287 286 281 277 272 262 258 258 257 261 252 252 248 243 245 243 240 243 245 247 248 255 269
289 286 284 282 285 282 277 275 274 270 266 259 255 252 252 254 249 240 240 241 241 240 241 244 244 247 259
287 285 281 278 279 281 279 276 274 271 266 263 256 254 252 249 246 242 230 235 240 238 236 240 239 241 253
282 280 278 275 274 276 275 275 273 271 266 267 263 259 260 254 251 242 236 230 237 238 233 235 235 238 243
276 277 273 269 268 270 271 269 273 275 275 269 267 263 257 255 248 240 238 232 230 235 232 232 237 228 235
274 273 272 268 266 263 265 265 266 272 273 274 271 267 258 253 250 241 236 230 229 230 228 231 238 220 229
273 271 270 266 266 266 262 263 260 264 271 271 274 265 264 258 260 247 245 230 226 225 225 227 236 218 224
272 270 269 267 266 266 266 264 260 258 265 269 269 265 260 264 261 258 246 235 223 233 225 228 229 226 213
273 270 269 270 267 267 266 266 264 259 259 265 264 259 257 255 255 260 252 240 226 228 230 229 225 219 211
270 270 269 271 270 268 267 264 264 261 260 263 259 251 251 246 247 258 253 245 231 228 229 226 225 202 210
267 269 269 268 267 265 264 262 261 260 260 260 259 248 247 246 246 252 257 246 234 226 223 230 218 202 208
Height
3107 3104 3109 3111 3111 3114 3112 3117 3122 3122 3123 3126 3127 3128 3129 3132 3133 3135 3135 3135 3134 3134 3133 3133 3131 3128 3126
3100 3103 3099 3099 3103 3098 3105 3107 3109 3112 3113 3115 3117 3120 3121 3123 3125 3127 3127 3128 3128 3128 3127 3127 3126 3124 3122
3095 3093 3092 3093 3089 3090 3095 3097 3099 3101 3102 3104 3106 3109 3111 3114 3116 3118 3119 3120 3120 3121 3121 3121 3121 3119 3117
3084 3085 3085 3083 3082 3083 3084 3085 3087 3088 3093 3094 3097 3098 3100 3104 3106 3108 3110 3112 3111 3112 3115 3115 3115 3113 3112
3074 3075 3075 3076 3074 3074 3072 3072 3075 3076 3081 3082 3084 3085 3089 3093 3097 3099 3098 3103 3102 3104 3108 3107 3110 3108 3106
3067 3067 3067 3066 3063 3063 3063 3061 3062 3067 3067 3071 3071 3074 3079 3083 3086 3089 3091 3092 3093 3094 3098 3100 3102 3102 3101
3057 3056 3057 3056 3056 3054 3053 3052 3053 3055 3056 3057 3060 3064 3067 3072 3073 3078 3081 3082 3083 3085 3088 3093 3095 3096 3095
3046 3046 3045 3045 3044 3044 3044 3044 3043 3043 3044 3041 3048 3052 3056 3060 3064 3065 3071 3071 3074 3076 3078 3084 3086 3088 3087
3036 3036 3036 3036 3033 3031 3032 3030 3032 3033 3034 3030 3037 3038 3042 3046 3048 3052 3055 3059 3064 3065 3068 3074 3077 3079 3078
3026 3026 3024 3024 3021 3019 3020 3018 3019 3019 3024 3022 3025 3025 3026 3031 3036 3039 3043 3047 3053 3054 3058 3064 3067 3069 3070
3012 3011 3013 3013 3011 3008 3007 3007 3007 3008 3013 3011 3012 3013 3013 3016 3021 3025 3028 3034 3038 3043 3048 3052 3054 3057 3062
2996 2997 2997 2998 2998 2997 2996 2996 2994 2996 3000 2998 2997 3002 3002 3004 3009 3014 3018 3020 3026 3031 3036 3041 3044 3046 3053
2980 2981 2981 2982 2982 2984 2983 2983 2983 2983 2986 2986 2987 2990 2989 2992 2997 3000 3004 3007 3011 3018 3023 3029 3034 3035 3043
2965 2965 2965 2966 2967 2968 2967 2968 2970 2972 2973 2974 2975 2978 2978 2981 2983 2986 2992 2994 2999 3004 3010 3015 3021 3025 3032
2951 2950 2949 2951 2951 2952 2952 2953 2956 2958 2961 2963 2962 2964 2966 2967 2971 2976 2980 2983 2986 2992 2997 3004 3008 3016 3023
2935 2935 2935 2935 2936 2938 2939 2940 2942 2945 2947 2950 2951 2951 2953 2955 2961 2966 2968 2971 2974 2979 2984 2989 2997 3006 3013
2918 2919 2920 2922 2923 2924 2925 2926 2929 2931 2934 2936 2939 2939 2940 2942 2950 2956 2957 2960 2964 2967 2973 2979 2989 2996 3001